Location: Newark
(0.5300°S, 127.4800°E)
Time: 00:17:19
(UTC+00:00)

A-11 Canister half - Pass Details

Date: 16 September 2019
Orbit: 1514 x 1686 km, 47.2° (Epoch: 21 October)

Event Time Altitude Azimuth Distance (km) Brightness Sun altitude
Rises 11:10:39 0° 325° (NW) 4,741 12.1 -26.4°
Reaches altitude 10° 11:13:42 10° 328° (NNW) 3,780 11.4 -27.2°
Maximum altitude 11:23:19 72° 51° (NE) 1,698 8.9 -29.6°
Enters shadow 11:25:36 56° 111° (ESE) 1,893 9.0 -30.1°
Drops below altitude 10° 11:33:18 10° 134° (SE) 3,919 - -32.1°
Sets 11:36:30 0° 135° (SE) 4,922 - -32.9°
